START_TIME,STEP,MOV.,M35,t_acc.,PL05,t_acc.,PL06,t_acc.,PL07,t_acc.
1981-08-24 06:06:24.980 ,0,0,0.,4.8,1.,4.8,0.,4.8,0.,4.8
1981-08-24 06:06:29.780 ,0,0,0.,4.8,2.,4.8,0.,4.8,0.,4.8
1981-08-24 06:06:34.580 ,0,0,0.,4.8,0.,4.8,0.,4.8,0.,4.8
1981-08-24 06:06:39.380 ,0,0,0.,4.8,0.,4.8,0.,4.8,0.,4.8
1981-08-24 06:06:44.180 ,0,0,0.,4.8,1.,4.8,0.,4.8,0.,4.8
1981-08-24 06:06:48.980 ,6,0,0.,4.8,0.,4.8,0.,4.8,0.,4.8
1981-08-24 06:06:53.780 ,6,0,0.,4.8,0.,4.8,0.,4.8,0.,4.8
1981-08-24 06:06:58.580 ,6,0,0.,4.8,2.,4.8,0.,4.8,0.,4.8
1981-08-24 06:07:03.380 ,6,0,0.,4.8,0.,4.8,1.,4.8,0.,4.8
1981-08-24 06:07:08.180 ,6,0,0.,4.8,2.,4.8,1.,4.8,0.,4.8
1981-08-24 06:07:12.980 ,5,0,0.,4.8,1.,4.8,0.,4.8,1.,4.8
1981-08-24 06:07:17.780 ,5,0,0.,4.8,2.,4.8,2.,4.8,0.,4.8
1981-08-24 06:07:22.580 ,5,0,0.,4.8,1.,4.8,0.,4.8,1.,4.8
1981-08-24 06:07:27.380 ,5,0,0.,4.8,3.,4.8,0.,4.8,0.,4.8
1981-08-24 06:07:32.180 ,5,0,0.,4.8,2.,4.8,1.,4.8,0.,4.8
1981-08-24 06:07:36.980 ,4,0,0.,4.8,2.,4.8,0.,4.8,0.,4.8
1981-08-24 06:07:41.780 ,4,0,0.,4.8,2.,4.8,0.,4.8,0.,4.8
1981-08-24 06:07:46.580 ,4,0,0.,4.8,0.,4.8,0.,4.8,0.,4.8
1981-08-24 06:07:51.380 ,4,0,0.,4.8,0.,4.8,0.,4.8,0.,4.8
1981-08-24 06:07:56.180 ,4,0,0.,4.8,2.,4.8,1.,4.8,0.,4.8
1981-08-24 06:08:00.980 ,3,0,0.,4.8,0.,4.8,0.,4.8,0.,4.8
1981-08-24 06:08:05.780 ,3,0,0.,4.8,0.,4.8,2.,4.8,0.,4.8
1981-08-24 06:08:10.580 ,3,0,0.,4.8,1.,4.8,1.,4.8,0.,4.8
1981-08-24 06:08:15.380 ,3,0,0.,4.8,3.,4.8,0.,4.8,0.,4.8
1981-08-24 06:08:20.180 ,3,0,0.,4.8,0.,4.8,1.,4.8,0.,4.8
1981-08-24 06:08:24.980 ,2,0,0.,4.8,2.,4.8,0.,4.8,0.,4.8
1981-08-24 06:08:29.780 ,2,0,0.,4.8,0.,4.8,0.,4.8,0.,4.8
1981-08-24 06:08:34.580 ,2,0,0.,4.8,1.,4.8,0.,4.8,0.,4.8
1981-08-24 06:08:39.380 ,2,0,0.,4.8,2.,4.8,0.,4.8,1.,4.8
1981-08-24 06:08:44.180 ,2,0,0.,4.8,1.,4.8,0.,4.8,0.,4.8
1981-08-24 06:08:48.980 ,1,0,0.,4.8,0.,4.8,0.,4.8,0.,4.8
1981-08-24 06:08:53.780 ,1,0,0.,4.8,2.,4.8,0.,4.8,0.,4.8
1981-08-24 06:08:58.580 ,1,0,0.,4.8,4.,4.8,0.,4.8,0.,4.8
1981-08-24 06:09:03.380 ,1,0,0.,4.8,4.,4.8,1.,4.8,0.,4.8
1981-08-24 06:09:08.180 ,1,0,0.,4.8,3.,4.8,0.,4.8,0.,4.8
1981-08-24 06:09:12.980 ,0,0,0.,4.8,2.,4.8,0.,4.8,1.,4.8
1981-08-24 06:09:17.780 ,0,0,0.,4.8,2.,4.8,1.,4.8,1.,4.8
1981-08-24 06:09:22.580 ,0,0,0.,4.8,1.,4.8,0.,4.8,1.,4.8
1981-08-24 06:09:27.380 ,0,0,0.,4.8,0.,4.8,0.,4.8,0.,4.8
1981-08-24 06:09:32.180 ,0,0,0.,4.8,2.,4.8,0.,4.8,0.,4.8
1981-08-24 06:09:36.980 ,0,0,0.,4.8,1.,4.8,0.,4.8,0.,4.8
1981-08-24 06:09:41.780 ,0,0,0.,4.8,2.,4.8,1.,4.8,0.,4.8
1981-08-24 06:09:46.580 ,0,0,0.,4.8,1.,4.8,1.,4.8,0.,4.8
1981-08-24 06:09:51.380 ,0,0,0.,4.8,2.,4.8,0.,4.8,0.,4.8
1981-08-24 06:09:56.180 ,0,0,0.,4.8,0.,4.8,0.,4.8,0.,4.8
1981-08-24 06:10:00.980 ,1,0,0.,4.8,1.,4.8,0.,4.8,0.,4.8
1981-08-24 06:10:05.780 ,1,0,0.,4.8,4.,4.8,0.,4.8,0.,4.8
1981-08-24 06:10:10.580 ,1,0,0.,4.8,1.,4.8,2.,4.8,0.,4.8
1981-08-24 06:10:15.380 ,1,0,0.,4.8,1.,4.8,0.,4.8,0.,4.8
1981-08-24 06:10:20.180 ,1,0,0.,4.8,2.,4.8,1.,4.8,0.,4.8
1981-08-24 06:10:24.980 ,2,0,0.,4.8,1.,4.8,1.,4.8,0.,4.8
1981-08-24 06:10:29.780 ,2,0,0.,4.8,1.,4.8,0.,4.8,0.,4.8
1981-08-24 06:10:34.580 ,2,0,0.,4.8,2.,4.8,0.,4.8,1.,4.8
1981-08-24 06:10:39.380 ,2,0,0.,4.8,1.,4.8,0.,4.8,0.,4.8
1981-08-24 06:10:44.180 ,2,0,0.,4.8,0.,4.8,0.,4.8,0.,4.8
1981-08-24 06:10:48.980 ,0,0,0.,4.8,1.,4.8,0.,4.8,0.,4.8
1981-08-24 06:10:53.780 ,0,0,0.,4.8,1.,4.8,0.,4.8,0.,4.8
1981-08-24 06:10:58.580 ,0,0,0.,4.8,0.,4.8,0.,4.8,0.,4.8
1981-08-24 06:11:03.380 ,0,0,0.,4.8,3.,4.8,0.,4.8,0.,4.8
1981-08-24 06:11:08.180 ,0,0,0.,4.8,0.,4.8,0.,4.8,0.,4.8
1981-08-24 06:15:35.180 ,0,0,,0,,0,,0,,0
1981-08-24 06:15:39.980 ,0,0,,0,,0,,0,,0
1981-08-24 06:15:44.780 ,0,0,,0,,0,,0,,0
1981-08-24 06:15:49.580 ,0,0,,0,,0,,0,,0
1981-08-24 06:15:54.380 ,0,0,,0,,0,,0,,0
1981-08-24 06:15:36.980 ,0,0,0.,4.8,1.,4.8,0.,4.8,0.,4.8
1981-08-24 06:15:41.780 ,0,0,0.,4.8,1.,4.8,0.,4.8,0.,4.8
1981-08-24 06:15:46.580 ,0,0,0.,4.8,0.,4.8,0.,4.8,1.,4.8
1981-08-24 06:15:51.380 ,0,0,0.,4.8,1.,4.8,0.,4.8,0.,4.8
1981-08-24 06:15:56.180 ,0,0,0.,4.8,1.,4.8,0.,4.8,0.,4.8
1981-08-24 06:16:00.980 ,3,0,0.,4.8,0.,4.8,0.,4.8,0.,4.8
1981-08-24 06:16:05.780 ,3,0,0.,4.8,0.,4.8,0.,4.8,0.,4.8
1981-08-24 06:16:10.580 ,3,0,0.,4.8,2.,4.8,0.,4.8,0.,4.8
1981-08-24 06:16:15.380 ,3,0,0.,4.8,1.,4.8,0.,4.8,1.,4.8
1981-08-24 06:16:20.180 ,3,0,0.,4.8,1.,4.8,0.,4.8,0.,4.8
1981-08-24 06:16:24.980 ,0,0,0.,4.8,0.,4.8,0.,4.8,0.,4.8
1981-08-24 06:16:29.780 ,0,0,0.,4.8,1.,4.8,0.,4.8,0.,4.8
1981-08-24 06:16:34.580 ,0,0,0.,4.8,3.,4.8,0.,4.8,0.,4.8
1981-08-24 06:16:39.380 ,0,0,0.,4.8,0.,4.8,0.,4.8,0.,4.8
1981-08-24 06:16:44.180 ,0,0,,0,,0,,0,,0
1981-08-24 06:30:24.970 ,4,0,0.,4.8,0.,4.8,0.,4.8,0.,4.8
1981-08-24 06:30:29.770 ,4,0,0.,4.8,1.,4.8,0.,4.8,1.,4.8
1981-08-24 06:30:34.570 ,4,0,0.,4.8,0.,4.8,0.,4.8,1.,4.8
1981-08-24 06:30:39.370 ,4,0,0.,4.8,0.,4.8,0.,4.8,0.,4.8
1981-08-24 06:30:44.170 ,4,0,0.,4.8,0.,4.8,0.,4.8,0.,4.8
1981-08-24 06:30:48.970 ,5,0,0.,4.8,1.,4.8,0.,4.8,0.,4.8
1981-08-24 06:30:53.770 ,5,0,0.,4.8,5.,4.8,1.,4.8,0.,4.8
1981-08-24 06:30:58.570 ,5,0,0.,4.8,3.,4.8,0.,4.8,0.,4.8
1981-08-24 06:31:03.370 ,5,0,0.,4.8,2.,4.8,0.,4.8,0.,4.8
1981-08-24 06:31:08.170 ,5,0,0.,4.8,1.,4.8,0.,4.8,0.,4.8
1981-08-24 06:31:12.970 ,6,0,0.,4.8,1.,4.8,0.,4.8,0.,4.8
1981-08-24 06:31:17.770 ,6,0,0.,4.8,0.,4.8,1.,4.8,0.,4.8
1981-08-24 06:31:22.570 ,6,0,0.,4.8,1.,4.8,0.,4.8,0.,4.8
1981-08-24 06:31:27.370 ,6,0,0.,4.8,2.,4.8,0.,4.8,0.,4.8
1981-08-24 06:31:32.170 ,6,0,0.,4.8,0.,4.8,0.,4.8,1.,4.8
1981-08-24 06:31:36.970 ,7,0,0.,4.8,1.,4.8,2.,4.8,1.,4.8
1981-08-24 06:31:41.770 ,7,0,0.,4.8,1.,4.8,0.,4.8,0.,4.8
1981-08-24 06:31:46.570 ,7,0,0.,4.8,2.,4.8,0.,4.8,0.,4.8
1981-08-24 06:31:51.370 ,7,0,0.,4.8,1.,4.8,0.,4.8,0.,4.8
1981-08-24 06:31:56.170 ,7,0,0.,4.8,0.,4.8,0.,4.8,0.,4.8
1981-08-24 06:32:00.970 ,7,0,0.,4.8,1.,4.8,0.,4.8,0.,4.8
1981-08-24 06:32:05.770 ,7,0,0.,4.8,1.,4.8,0.,4.8,0.,4.8
1981-08-24 06:32:10.570 ,7,0,0.,4.8,0.,4.8,0.,4.8,0.,4.8
1981-08-24 06:32:15.370 ,7,0,0.,4.8,1.,4.8,0.,4.8,0.,4.8
1981-08-24 06:32:20.170 ,7,0,0.,4.8,0.,4.8,1.,4.8,0.,4.8
1981-08-24 06:32:24.970 ,7,0,0.,4.8,0.,4.8,0.,4.8,0.,4.8
1981-08-24 06:32:29.770 ,7,0,0.,4.8,1.,4.8,0.,4.8,0.,4.8
1981-08-24 06:32:34.570 ,7,0,0.,4.8,0.,4.8,0.,4.8,0.,4.8
1981-08-24 06:32:39.370 ,7,0,0.,4.8,0.,4.8,0.,4.8,0.,4.8
1981-08-24 06:32:44.170 ,7,0,0.,4.8,1.,4.8,0.,4.8,1.,4.8
1981-08-24 06:32:48.970 ,6,0,0.,4.8,0.,4.8,0.,4.8,0.,4.8
1981-08-24 06:32:53.770 ,6,0,0.,4.8,0.,4.8,0.,4.8,0.,4.8
1981-08-24 06:32:58.570 ,6,0,0.,4.8,2.,4.8,1.,4.8,0.,4.8
1981-08-24 06:33:03.370 ,6,0,0.,4.8,2.,4.8,0.,4.8,0.,4.8
1981-08-24 06:33:08.170 ,6,0,0.,4.8,0.,4.8,0.,4.8,0.,4.8
1981-08-24 06:33:12.970 ,6,0,0.,4.8,1.,4.8,0.,4.8,0.,4.8
1981-08-24 06:33:17.770 ,6,0,0.,4.8,1.,4.8,0.,4.8,1.,4.8
1981-08-24 06:33:22.570 ,6,0,0.,4.8,2.,4.8,0.,4.8,0.,4.8
1981-08-24 06:33:27.370 ,6,0,0.,4.8,1.,4.8,1.,4.8,1.,4.8
1981-08-24 06:33:32.170 ,6,0,0.,4.8,4.,4.8,1.,4.8,1.,4.8
1981-08-24 06:33:36.970 ,5,0,0.,4.8,0.,4.8,1.,4.8,0.,4.8
1981-08-24 06:33:41.770 ,5,0,0.,4.8,5.,4.8,0.,4.8,0.,4.8
1981-08-24 06:33:46.570 ,5,0,0.,4.8,0.,4.8,0.,4.8,0.,4.8
1981-08-24 06:33:51.370 ,5,0,0.,4.8,1.,4.8,0.,4.8,0.,4.8
1981-08-24 06:33:56.170 ,5,0,0.,4.8,1.,4.8,1.,4.8,1.,4.8
1981-08-24 06:34:00.970 ,5,0,0.,4.8,0.,4.8,0.,4.8,0.,4.8
1981-08-24 06:34:05.770 ,5,0,0.,4.8,2.,4.8,0.,4.8,0.,4.8
1981-08-24 06:34:10.570 ,5,0,0.,4.8,1.,4.8,1.,4.8,0.,4.8
1981-08-24 06:34:15.370 ,5,0,0.,4.8,1.,4.8,1.,4.8,0.,4.8
1981-08-24 06:34:20.170 ,5,0,0.,4.8,2.,4.8,0.,4.8,0.,4.8
1981-08-24 06:34:24.970 ,4,0,0.,4.8,1.,4.8,1.,4.8,0.,4.8
1981-08-24 06:34:29.770 ,4,0,0.,4.8,0.,4.8,0.,4.8,0.,4.8
1981-08-24 06:34:34.570 ,4,0,0.,4.8,0.,4.8,0.,4.8,0.,4.8
1981-08-24 06:34:39.370 ,4,0,0.,4.8,1.,4.8,0.,4.8,0.,4.8
1981-08-24 06:34:44.170 ,4,0,0.,4.8,1.,4.8,1.,4.8,0.,4.8
1981-08-24 06:34:48.970 ,4,0,0.,4.8,0.,4.8,0.,4.8,0.,4.8
1981-08-24 06:34:53.770 ,4,0,0.,4.8,3.,4.8,0.,4.8,0.,4.8
1981-08-24 06:34:58.570 ,4,0,0.,4.8,0.,4.8,0.,4.8,0.,4.8
1981-08-24 06:35:03.370 ,4,0,0.,4.8,1.,4.8,0.,4.8,1.,4.8
1981-08-24 06:35:08.170 ,4,0,0.,4.8,2.,4.8,0.,4.8,1.,4.8
1981-08-24 06:35:12.970 ,3,0,0.,4.8,1.,4.8,0.,4.8,0.,4.8
1981-08-24 06:35:17.770 ,3,0,0.,4.8,0.,4.8,0.,4.8,0.,4.8
1981-08-24 06:35:22.570 ,3,0,0.,4.8,0.,4.8,0.,4.8,0.,4.8
1981-08-24 06:35:27.370 ,3,0,0.,4.8,1.,4.8,0.,4.8,1.,4.8
1981-08-24 06:35:32.170 ,3,0,0.,4.8,2.,4.8,0.,4.8,0.,4.8
1981-08-24 06:35:36.970 ,3,0,0.,4.8,0.,4.8,1.,4.8,0.,4.8
1981-08-24 06:35:41.770 ,3,0,0.,4.8,0.,4.8,0.,4.8,0.,4.8
1981-08-24 06:35:46.570 ,3,0,0.,4.8,1.,4.8,1.,4.8,0.,4.8
1981-08-24 06:35:51.370 ,3,0,0.,4.8,0.,4.8,0.,4.8,0.,4.8
1981-08-24 06:35:56.170 ,3,0,0.,4.8,2.,4.8,0.,4.8,0.,4.8
1981-08-24 06:36:00.970 ,2,0,0.,4.8,0.,4.8,0.,4.8,0.,4.8
1981-08-24 06:36:05.770 ,2,0,0.,4.8,0.,4.8,0.,4.8,0.,4.8
1981-08-24 06:36:10.570 ,2,0,0.,4.8,2.,4.8,1.,4.8,0.,4.8
1981-08-24 06:36:15.370 ,2,0,0.,4.8,0.,4.8,0.,4.8,0.,4.8
1981-08-24 06:36:20.170 ,2,0,0.,4.8,0.,4.8,0.,4.8,0.,4.8
1981-08-24 06:36:24.970 ,2,0,0.,4.8,1.,4.8,1.,4.8,0.,4.8
1981-08-24 06:36:29.770 ,2,0,0.,4.8,1.,4.8,0.,4.8,0.,4.8
1981-08-24 06:36:34.570 ,2,0,0.,4.8,1.,4.8,1.,4.8,0.,4.8
1981-08-24 06:36:39.370 ,2,0,0.,4.8,3.,4.8,1.,4.8,0.,4.8
1981-08-24 06:36:44.170 ,2,0,0.,4.8,3.,4.8,0.,4.8,0.,4.8
1981-08-24 06:36:48.970 ,1,0,0.,4.8,1.,4.8,0.,4.8,0.,4.8
1981-08-24 06:36:53.770 ,1,0,0.,4.8,2.,4.8,0.,4.8,1.,4.8
1981-08-24 06:36:58.570 ,1,0,0.,4.8,1.,4.8,1.,4.8,0.,4.8
1981-08-24 06:37:03.370 ,1,0,0.,4.8,0.,4.8,0.,4.8,0.,4.8
1981-08-24 06:37:08.170 ,1,0,0.,4.8,3.,4.8,0.,4.8,0.,4.8
1981-08-24 06:37:12.970 ,1,0,0.,4.8,2.,4.8,0.,4.8,0.,4.8
1981-08-24 06:37:17.770 ,1,0,0.,4.8,0.,4.8,0.,4.8,0.,4.8
1981-08-24 06:37:22.570 ,1,0,0.,4.8,1.,4.8,1.,4.8,0.,4.8
1981-08-24 06:37:27.370 ,1,0,0.,4.8,1.,4.8,1.,4.8,0.,4.8
1981-08-24 06:37:32.170 ,1,0,0.,4.8,2.,4.8,0.,4.8,0.,4.8
1981-08-24 06:37:36.970 ,0,0,0.,4.8,0.,4.8,0.,4.8,1.,4.8
1981-08-24 06:37:41.770 ,0,0,0.,4.8,2.,4.8,0.,4.8,0.,4.8
1981-08-24 06:37:46.570 ,0,0,0.,4.8,0.,4.8,0.,4.8,0.,4.8
1981-08-24 06:37:51.370 ,0,0,0.,4.8,2.,4.8,1.,4.8,0.,4.8
1981-08-24 06:37:56.170 ,0,0,0.,4.8,3.,4.8,1.,4.8,1.,4.8
1981-08-24 06:38:00.970 ,0,0,0.,4.8,1.,4.8,0.,4.8,0.,4.8
1981-08-24 06:38:05.770 ,0,0,0.,4.8,1.,4.8,0.,4.8,0.,4.8
1981-08-24 06:38:10.570 ,0,0,0.,4.8,1.,4.8,0.,4.8,0.,4.8
1981-08-24 06:38:15.370 ,0,0,0.,4.8,0.,4.8,0.,4.8,0.,4.8
1981-08-24 06:38:20.170 ,0,0,0.,4.8,3.,4.8,0.,4.8,0.,4.8
1981-08-24 06:38:24.970 ,0,0,0.,4.8,0.,4.8,3.,4.8,0.,4.8
1981-08-24 06:38:29.770 ,0,0,0.,4.8,1.,4.8,1.,4.8,0.,4.8
1981-08-24 06:38:34.570 ,0,0,0.,4.8,2.,4.8,0.,4.8,0.,4.8
1981-08-24 06:38:39.370 ,0,0,0.,4.8,0.,4.8,0.,4.8,1.,4.8
1981-08-24 06:38:44.170 ,0,0,0.,4.8,1.,4.8,0.,4.8,0.,4.8
1981-08-24 06:38:48.970 ,0,0,0.,4.8,0.,4.8,0.,4.8,0.,4.8
1981-08-24 06:38:53.770 ,0,0,0.,4.8,1.,4.8,1.,4.8,1.,4.8
1981-08-24 06:38:58.570 ,0,0,0.,4.8,0.,4.8,0.,4.8,0.,4.8
1981-08-24 06:39:03.370 ,0,0,0.,4.8,2.,4.8,0.,4.8,0.,4.8
1981-08-24 06:39:08.170 ,0,0,0.,4.8,5.,4.8,1.,4.8,0.,4.8
1981-08-24 06:39:12.970 ,1,0,0.,4.8,1.,4.8,0.,4.8,0.,4.8
1981-08-24 06:39:17.770 ,1,0,0.,4.8,2.,4.8,0.,4.8,0.,4.8
1981-08-24 06:39:22.570 ,1,0,0.,4.8,1.,4.8,1.,4.8,1.,4.8
1981-08-24 06:39:27.370 ,1,0,0.,4.8,0.,4.8,2.,4.8,0.,4.8
1981-08-24 06:39:32.170 ,1,0,0.,4.8,1.,4.8,2.,4.8,0.,4.8
1981-08-24 06:39:36.970 ,1,0,0.,4.8,1.,4.8,1.,4.8,0.,4.8
1981-08-24 06:39:41.770 ,1,0,0.,4.8,2.,4.8,0.,4.8,1.,4.8
1981-08-24 06:39:46.570 ,1,0,0.,4.8,2.,4.8,0.,4.8,0.,4.8
1981-08-24 06:39:51.370 ,1,0,0.,4.8,2.,4.8,1.,4.8,0.,4.8
1981-08-24 06:39:56.170 ,1,0,0.,4.8,0.,4.8,2.,4.8,0.,4.8
1981-08-24 06:40:00.970 ,2,0,0.,4.8,1.,4.8,0.,4.8,0.,4.8
1981-08-24 06:40:05.770 ,2,0,0.,4.8,2.,4.8,0.,4.8,1.,4.8
1981-08-24 06:40:10.570 ,2,0,0.,4.8,1.,4.8,0.,4.8,0.,4.8
1981-08-24 06:40:15.370 ,2,0,0.,4.8,2.,4.8,0.,4.8,0.,4.8
1981-08-24 06:40:20.170 ,2,0,0.,4.8,1.,4.8,0.,4.8,0.,4.8
1981-08-24 06:40:24.970 ,2,0,0.,4.8,1.,4.8,0.,4.8,0.,4.8
1981-08-24 06:40:29.770 ,2,0,0.,4.8,1.,4.8,0.,4.8,0.,4.8
1981-08-24 06:40:34.570 ,2,0,0.,4.8,1.,4.8,0.,4.8,0.,4.8
1981-08-24 06:40:39.370 ,2,0,0.,4.8,2.,4.8,0.,4.8,1.,4.8
1981-08-24 06:40:44.170 ,2,0,0.,4.8,0.,4.8,0.,4.8,0.,4.8
1981-08-24 06:40:48.970 ,3,0,0.,4.8,1.,4.8,0.,4.8,0.,4.8
1981-08-24 06:40:53.770 ,3,0,0.,4.8,4.,4.8,1.,4.8,0.,4.8
1981-08-24 06:40:58.570 ,3,0,0.,4.8,0.,4.8,1.,4.8,0.,4.8
1981-08-24 06:41:03.370 ,3,0,0.,4.8,3.,4.8,1.,4.8,0.,4.8
1981-08-24 06:41:08.170 ,3,0,0.,4.8,0.,4.8,0.,4.8,0.,4.8
1981-08-24 06:41:12.970 ,3,0,0.,4.8,0.,4.8,0.,4.8,1.,4.8
1981-08-24 06:41:17.770 ,3,0,0.,4.8,0.,4.8,0.,4.8,0.,4.8
1981-08-24 06:41:22.570 ,3,0,0.,4.8,1.,4.8,0.,4.8,0.,4.8
1981-08-24 06:41:27.370 ,3,0,0.,4.8,0.,4.8,0.,4.8,0.,4.8
1981-08-24 06:41:32.170 ,3,0,0.,4.8,0.,4.8,0.,4.8,0.,4.8
1981-08-24 06:41:36.970 ,4,0,0.,4.8,0.,4.8,0.,4.8,0.,4.8
1981-08-24 06:41:41.770 ,4,0,0.,4.8,0.,4.8,0.,4.8,0.,4.8
1981-08-24 06:41:46.570 ,4,0,0.,4.8,1.,4.8,0.,4.8,0.,4.8
1981-08-24 06:41:51.370 ,4,0,0.,4.8,0.,4.8,0.,4.8,0.,4.8
1981-08-24 06:41:56.170 ,4,0,0.,4.8,1.,4.8,0.,4.8,0.,4.8
1981-08-24 06:42:00.970 ,0,0,0.,4.8,0.,4.8,0.,4.8,0.,4.8
1981-08-24 06:42:05.770 ,0,0,0.,4.8,1.,4.8,1.,4.8,0.,4.8
1981-08-24 06:42:10.570 ,0,0,0.,4.8,0.,4.8,0.,4.8,0.,4.8
1981-08-24 06:42:15.370 ,0,0,0.,4.8,1.,4.8,1.,4.8,0.,4.8
1981-08-24 06:42:20.170 ,0,0,0.,4.8,1.,4.8,0.,4.8,0.,4.8
1981-08-24 06:42:29.170 ,0,0,,0,,0,,0,,0
1981-08-24 06:42:33.970 ,0,0,0.,4.8,0.,4.8,0.,4.8,0.,4.8
1981-08-24 06:42:38.770 ,0,0,0.,4.8,1.,4.8,0.,4.8,0.,4.8
1981-08-24 06:42:43.570 ,0,0,0.,4.8,3.,4.8,1.,4.8,0.,4.8
1981-08-24 06:42:48.370 ,0,0,0.,4.8,1.,4.8,0.,4.8,0.,4.8
1981-08-24 06:42:48.970 ,0,0,0.,4.8,3.,4.8,0.,4.8,0.,4.8
1981-08-24 06:42:53.770 ,0,0,0.,4.8,2.,4.8,0.,4.8,0.,4.8
1981-08-24 06:42:58.570 ,0,0,0.,4.8,0.,4.8,0.,4.8,0.,4.8
1981-08-24 06:43:03.370 ,0,0,0.,4.8,1.,4.8,0.,4.8,0.,4.8
1981-08-24 06:43:08.170 ,0,0,0.,4.8,3.,4.8,0.,4.8,0.,4.8
1981-08-24 06:43:12.970 ,6,0,0.,4.8,0.,4.8,0.,4.8,0.,4.8
1981-08-24 06:43:17.770 ,6,0,0.,4.8,1.,4.8,1.,4.8,0.,4.8
1981-08-24 06:43:22.570 ,6,0,0.,4.8,2.,4.8,0.,4.8,0.,4.8
1981-08-24 06:43:27.370 ,6,0,0.,4.8,2.,4.8,0.,4.8,0.,4.8
1981-08-24 06:43:32.170 ,6,0,0.,4.8,0.,4.8,1.,4.8,0.,4.8
1981-08-24 06:43:36.970 ,6,0,0.,4.8,1.,4.8,3.,4.8,0.,4.8
1981-08-24 06:43:41.770 ,6,0,0.,4.8,4.,4.8,2.,4.8,0.,4.8
1981-08-24 06:43:46.570 ,6,0,0.,4.8,2.,4.8,3.,4.8,1.,4.8
1981-08-24 06:43:51.370 ,6,0,0.,4.8,0.,4.8,0.,4.8,0.,4.8
1981-08-24 06:43:56.170 ,6,0,0.,4.8,0.,4.8,0.,4.8,0.,4.8
1981-08-24 06:44:00.970 ,7,0,0.,4.8,1.,4.8,0.,4.8,1.,4.8
1981-08-24 06:44:05.770 ,7,0,0.,4.8,1.,4.8,0.,4.8,0.,4.8
1981-08-24 06:44:10.570 ,7,0,0.,4.8,1.,4.8,0.,4.8,0.,4.8
1981-08-24 06:44:15.370 ,7,0,0.,4.8,1.,4.8,0.,4.8,0.,4.8
1981-08-24 06:44:20.170 ,7,0,0.,4.8,1.,4.8,0.,4.8,0.,4.8
1981-08-24 06:44:24.970 ,7,0,0.,4.8,0.,4.8,0.,4.8,1.,4.8
1981-08-24 06:44:29.770 ,7,0,0.,4.8,2.,4.8,0.,4.8,0.,4.8
1981-08-24 06:44:34.570 ,7,0,0.,4.8,0.,4.8,0.,4.8,0.,4.8
1981-08-24 06:44:39.370 ,7,0,0.,4.8,1.,4.8,0.,4.8,0.,4.8
1981-08-24 06:44:44.170 ,7,0,0.,4.8,1.,4.8,1.,4.8,0.,4.8
1981-08-24 06:44:48.970 ,7,0,0.,4.8,0.,4.8,0.,4.8,0.,4.8
1981-08-24 06:44:53.770 ,7,0,0.,4.8,0.,4.8,0.,4.8,0.,4.8
1981-08-24 06:44:58.570 ,7,0,0.,4.8,0.,4.8,0.,4.8,0.,4.8
1981-08-24 06:45:03.370 ,7,0,0.,4.8,0.,4.8,0.,4.8,0.,4.8
1981-08-24 06:45:08.170 ,7,0,0.,4.8,0.,4.8,0.,4.8,0.,4.8
1981-08-24 06:45:12.970 ,6,0,0.,4.8,0.,4.8,0.,4.8,0.,4.8
1981-08-24 06:45:17.770 ,6,0,0.,4.8,0.,4.8,1.,4.8,1.,4.8
1981-08-24 06:45:22.570 ,6,0,0.,4.8,1.,4.8,2.,4.8,0.,4.8
1981-08-24 06:45:27.370 ,6,0,0.,4.8,1.,4.8,0.,4.8,0.,4.8
1981-08-24 06:45:32.170 ,6,0,0.,4.8,4.,4.8,0.,4.8,0.,4.8
1981-08-24 06:45:36.970 ,5,0,0.,4.8,0.,4.8,0.,4.8,0.,4.8
1981-08-24 06:45:41.770 ,5,0,0.,4.8,1.,4.8,0.,4.8,1.,4.8
1981-08-24 06:45:46.570 ,5,0,0.,4.8,3.,4.8,0.,4.8,0.,4.8
1981-08-24 06:45:51.370 ,5,0,0.,4.8,2.,4.8,0.,4.8,0.,4.8
1981-08-24 06:45:56.170 ,5,0,0.,4.8,3.,4.8,0.,4.8,1.,4.8
1981-08-24 06:46:00.970 ,4,0,0.,4.8,5.,4.8,1.,4.8,0.,4.8
1981-08-24 06:46:05.770 ,4,0,0.,4.8,4.,4.8,1.,4.8,0.,4.8
1981-08-24 06:46:10.570 ,4,0,0.,4.8,0.,4.8,0.,4.8,0.,4.8
1981-08-24 06:46:15.370 ,4,0,0.,4.8,1.,4.8,0.,4.8,0.,4.8
1981-08-24 06:46:20.170 ,4,0,0.,4.8,1.,4.8,0.,4.8,1.,4.8
1981-08-24 06:46:24.970 ,3,0,0.,4.8,0.,4.8,1.,4.8,0.,4.8
1981-08-24 06:46:29.770 ,3,0,0.,4.8,0.,4.8,0.,4.8,0.,4.8
1981-08-24 06:46:34.570 ,3,0,0.,4.8,1.,4.8,0.,4.8,0.,4.8
1981-08-24 06:46:39.370 ,3,0,0.,4.8,0.,4.8,0.,4.8,0.,4.8
1981-08-24 06:46:44.170 ,3,0,0.,4.8,1.,4.8,0.,4.8,0.,4.8
1981-08-24 06:46:48.970 ,2,0,0.,4.8,0.,4.8,0.,4.8,0.,4.8
1981-08-24 06:46:53.770 ,2,0,0.,4.8,1.,4.8,1.,4.8,0.,4.8
1981-08-24 06:46:58.570 ,2,0,0.,4.8,0.,4.8,0.,4.8,0.,4.8
1981-08-24 06:47:03.370 ,2,0,0.,4.8,0.,4.8,0.,4.8,0.,4.8
1981-08-24 06:47:08.170 ,2,0,0.,4.8,1.,4.8,0.,4.8,0.,4.8
1981-08-24 06:47:12.970 ,1,0,0.,4.8,3.,4.8,0.,4.8,0.,4.8
1981-08-24 06:47:17.770 ,1,0,0.,4.8,0.,4.8,0.,4.8,0.,4.8
1981-08-24 06:47:22.570 ,1,0,0.,4.8,3.,4.8,0.,4.8,0.,4.8
1981-08-24 06:47:27.370 ,1,0,0.,4.8,2.,4.8,0.,4.8,0.,4.8
1981-08-24 06:47:32.170 ,1,0,0.,4.8,3.,4.8,1.,4.8,0.,4.8
1981-08-24 06:47:36.970 ,0,0,0.,4.8,1.,4.8,0.,4.8,0.,4.8
1981-08-24 06:47:41.770 ,0,0,0.,4.8,1.,4.8,1.,4.8,0.,4.8
1981-08-24 06:47:46.570 ,0,0,0.,4.8,1.,4.8,0.,4.8,0.,4.8
1981-08-24 06:47:51.370 ,0,0,0.,4.8,2.,4.8,0.,4.8,0.,4.8
1981-08-24 06:47:56.170 ,0,0,0.,4.8,0.,4.8,1.,4.8,0.,4.8
1981-08-24 06:48:00.970 ,0,0,0.,4.8,3.,4.8,0.,4.8,0.,4.8
1981-08-24 06:48:05.770 ,0,0,0.,4.8,0.,4.8,1.,4.8,0.,4.8
1981-08-24 06:48:10.570 ,0,0,0.,4.8,2.,4.8,0.,4.8,0.,4.8
1981-08-24 06:48:15.370 ,0,0,0.,4.8,0.,4.8,1.,4.8,0.,4.8
1981-08-24 06:48:20.170 ,0,0,0.,4.8,1.,4.8,0.,4.8,1.,4.8
1981-08-24 06:48:24.970 ,1,0,0.,4.8,0.,4.8,0.,4.8,0.,4.8
1981-08-24 06:48:29.770 ,1,0,0.,4.8,0.,4.8,1.,4.8,0.,4.8
1981-08-24 06:48:34.570 ,1,0,0.,4.8,0.,4.8,0.,4.8,0.,4.8
1981-08-24 06:48:39.370 ,1,0,0.,4.8,3.,4.8,0.,4.8,0.,4.8
1981-08-24 06:48:44.170 ,1,0,0.,4.8,1.,4.8,1.,4.8,0.,4.8
1981-08-24 06:48:48.970 ,2,0,0.,4.8,2.,4.8,0.,4.8,0.,4.8
1981-08-24 06:48:53.770 ,2,0,0.,4.8,0.,4.8,0.,4.8,0.,4.8
1981-08-24 06:48:58.570 ,2,0,0.,4.8,0.,4.8,0.,4.8,0.,4.8
1981-08-24 06:49:03.370 ,2,0,0.,4.8,3.,4.8,1.,4.8,1.,4.8
1981-08-24 06:49:08.170 ,2,0,0.,4.8,1.,4.8,0.,4.8,0.,4.8
1981-08-24 06:49:12.970 ,3,0,0.,4.8,1.,4.8,1.,4.8,1.,4.8
1981-08-24 06:49:17.770 ,3,0,0.,4.8,1.,4.8,0.,4.8,0.,4.8
1981-08-24 06:49:22.570 ,3,0,0.,4.8,3.,4.8,0.,4.8,0.,4.8
1981-08-24 06:49:27.370 ,3,0,0.,4.8,0.,4.8,0.,4.8,0.,4.8
1981-08-24 06:49:32.170 ,3,0,0.,4.8,2.,4.8,0.,4.8,0.,4.8
1981-08-24 06:49:36.970 ,4,0,0.,4.8,1.,4.8,0.,4.8,0.,4.8
1981-08-24 06:49:41.770 ,4,0,0.,4.8,1.,4.8,0.,4.8,0.,4.8
1981-08-24 06:49:46.570 ,4,0,0.,4.8,1.,4.8,0.,4.8,0.,4.8
1981-08-24 06:49:51.370 ,4,0,0.,4.8,0.,4.8,0.,4.8,1.,4.8
1981-08-24 06:49:56.170 ,4,0,0.,4.8,0.,4.8,0.,4.8,0.,4.8
1981-08-24 06:50:00.970 ,5,0,0.,4.8,2.,4.8,0.,4.8,0.,4.8
1981-08-24 06:50:05.770 ,5,0,0.,4.8,1.,4.8,0.,4.8,1.,4.8
1981-08-24 06:50:10.570 ,5,0,0.,4.8,0.,4.8,0.,4.8,0.,4.8
1981-08-24 06:50:15.370 ,5,0,0.,4.8,3.,4.8,0.,4.8,0.,4.8
1981-08-24 06:50:20.170 ,5,0,0.,4.8,1.,4.8,0.,4.8,0.,4.8
1981-08-24 06:50:24.970 ,6,0,0.,4.8,0.,4.8,0.,4.8,0.,4.8
1981-08-24 06:50:29.770 ,6,0,0.,4.8,2.,4.8,0.,4.8,0.,4.8
1981-08-24 06:50:34.570 ,6,0,0.,4.8,1.,4.8,1.,4.8,1.,4.8
1981-08-24 06:50:39.370 ,6,0,0.,4.8,0.,4.8,0.,4.8,0.,4.8
1981-08-24 06:50:44.170 ,6,0,0.,4.8,0.,4.8,0.,4.8,1.,4.8
1981-08-24 06:50:48.970 ,7,0,0.,4.8,1.,4.8,0.,4.8,0.,4.8
1981-08-24 06:50:53.770 ,7,0,0.,4.8,1.,4.8,1.,4.8,0.,4.8
1981-08-24 06:50:58.570 ,7,0,0.,4.8,0.,4.8,0.,4.8,0.,4.8
1981-08-24 06:51:03.370 ,7,0,0.,4.8,0.,4.8,0.,4.8,0.,4.8
1981-08-24 06:51:08.170 ,7,0,0.,4.8,0.,4.8,0.,4.8,0.,4.8
1981-08-24 06:51:12.970 ,7,0,0.,4.8,0.,4.8,0.,4.8,0.,4.8
1981-08-24 06:51:17.770 ,7,0,0.,4.8,0.,4.8,0.,4.8,0.,4.8
1981-08-24 06:51:22.570 ,7,0,0.,4.8,1.,4.8,0.,4.8,0.,4.8
1981-08-24 06:51:27.370 ,7,0,0.,4.8,1.,4.8,0.,4.8,0.,4.8
1981-08-24 06:51:32.170 ,7,0,0.,4.8,0.,4.8,0.,4.8,0.,4.8
1981-08-24 06:51:36.970 ,7,0,0.,4.8,1.,4.8,0.,4.8,0.,4.8
1981-08-24 06:51:41.770 ,7,0,0.,4.8,0.,4.8,0.,4.8,0.,4.8
1981-08-24 06:51:46.570 ,7,0,0.,4.8,0.,4.8,0.,4.8,0.,4.8
1981-08-24 06:51:51.370 ,7,0,0.,4.8,0.,4.8,1.,4.8,0.,4.8
1981-08-24 06:51:56.170 ,7,0,0.,4.8,1.,4.8,0.,4.8,0.,4.8
1981-08-24 06:52:00.970 ,6,0,0.,4.8,0.,4.8,0.,4.8,0.,4.8
1981-08-24 06:52:05.770 ,6,0,0.,4.8,1.,4.8,0.,4.8,0.,4.8
1981-08-24 06:52:10.570 ,6,0,0.,4.8,4.,4.8,0.,4.8,0.,4.8
1981-08-24 06:52:15.370 ,6,0,0.,4.8,1.,4.8,0.,4.8,0.,4.8
1981-08-24 06:52:20.170 ,6,0,0.,4.8,1.,4.8,1.,4.8,0.,4.8
1981-08-24 06:52:24.970 ,6,0,0.,4.8,2.,4.8,0.,4.8,0.,4.8
1981-08-24 06:52:29.770 ,6,0,0.,4.8,2.,4.8,0.,4.8,0.,4.8
1981-08-24 06:52:34.570 ,6,0,0.,4.8,0.,4.8,1.,4.8,0.,4.8
1981-08-24 06:52:39.370 ,6,0,0.,4.8,1.,4.8,0.,4.8,0.,4.8
1981-08-24 06:52:44.170 ,6,0,0.,4.8,3.,4.8,1.,4.8,0.,4.8
1981-08-24 06:52:48.970 ,5,0,0.,4.8,3.,4.8,0.,4.8,1.,4.8
1981-08-24 06:52:53.770 ,5,0,0.,4.8,1.,4.8,1.,4.8,0.,4.8
1981-08-24 06:52:58.570 ,5,0,0.,4.8,1.,4.8,0.,4.8,0.,4.8
1981-08-24 06:53:03.370 ,5,0,0.,4.8,1.,4.8,0.,4.8,0.,4.8
1981-08-24 06:53:08.170 ,5,0,0.,4.8,0.,4.8,0.,4.8,0.,4.8
1981-08-24 06:53:12.970 ,5,0,0.,4.8,0.,4.8,1.,4.8,0.,4.8
1981-08-24 06:53:17.770 ,5,0,0.,4.8,2.,4.8,1.,4.8,0.,4.8
1981-08-24 06:53:22.570 ,5,0,0.,4.8,1.,4.8,0.,4.8,0.,4.8
1981-08-24 06:53:27.370 ,5,0,0.,4.8,0.,4.8,0.,4.8,0.,4.8
1981-08-24 06:53:32.170 ,5,0,0.,4.8,1.,4.8,0.,4.8,1.,4.8
1981-08-24 06:53:36.970 ,4,0,0.,4.8,3.,4.8,0.,4.8,0.,4.8
1981-08-24 06:53:41.770 ,4,0,0.,4.8,3.,4.8,2.,4.8,0.,4.8
1981-08-24 06:53:46.570 ,4,0,0.,4.8,2.,4.8,0.,4.8,0.,4.8
1981-08-24 06:53:51.370 ,4,0,0.,4.8,1.,4.8,0.,4.8,0.,4.8
1981-08-24 06:53:56.170 ,4,0,0.,4.8,1.,4.8,0.,4.8,1.,4.8
1981-08-24 06:54:00.970 ,4,0,0.,4.8,0.,4.8,0.,4.8,0.,4.8
1981-08-24 06:54:05.770 ,4,0,0.,4.8,0.,4.8,0.,4.8,0.,4.8
1981-08-24 06:54:10.570 ,4,0,0.,4.8,1.,4.8,0.,4.8,0.,4.8
1981-08-24 06:54:15.370 ,4,0,0.,4.8,0.,4.8,0.,4.8,0.,4.8
1981-08-24 06:54:20.170 ,4,0,0.,4.8,0.,4.8,0.,4.8,0.,4.8
1981-08-24 06:54:24.970 ,3,0,0.,4.8,1.,4.8,0.,4.8,0.,4.8
1981-08-24 06:54:29.770 ,3,0,0.,4.8,0.,4.8,0.,4.8,0.,4.8
1981-08-24 06:54:34.570 ,3,0,0.,4.8,0.,4.8,0.,4.8,0.,4.8
1981-08-24 06:54:39.370 ,3,0,0.,4.8,0.,4.8,1.,4.8,0.,4.8
1981-08-24 06:54:44.170 ,3,0,0.,4.8,1.,4.8,0.,4.8,0.,4.8
1981-08-24 06:54:48.970 ,3,0,0.,4.8,1.,4.8,0.,4.8,0.,4.8
1981-08-24 06:54:53.770 ,3,0,0.,4.8,0.,4.8,0.,4.8,0.,4.8
1981-08-24 06:54:58.570 ,3,0,0.,4.8,0.,4.8,0.,4.8,0.,4.8
1981-08-24 06:55:03.370 ,3,0,0.,4.8,1.,4.8,0.,4.8,0.,4.8
1981-08-24 06:55:08.170 ,3,0,0.,4.8,2.,4.8,0.,4.8,0.,4.8
1981-08-24 06:55:12.970 ,2,0,0.,4.8,1.,4.8,3.,4.8,0.,4.8
1981-08-24 06:55:17.770 ,2,0,0.,4.8,2.,4.8,0.,4.8,0.,4.8
1981-08-24 06:55:22.570 ,2,0,0.,4.8,2.,4.8,1.,4.8,0.,4.8
1981-08-24 06:55:27.370 ,2,0,0.,4.8,1.,4.8,0.,4.8,0.,4.8
1981-08-24 06:55:32.170 ,2,0,0.,4.8,0.,4.8,0.,4.8,0.,4.8
1981-08-24 06:55:36.970 ,2,0,0.,4.8,2.,4.8,1.,4.8,0.,4.8
1981-08-24 06:55:41.770 ,2,0,0.,4.8,0.,4.8,1.,4.8,0.,4.8
1981-08-24 06:55:46.570 ,2,0,0.,4.8,0.,4.8,0.,4.8,0.,4.8
1981-08-24 06:55:51.370 ,2,0,0.,4.8,0.,4.8,0.,4.8,0.,4.8
1981-08-24 06:55:56.170 ,2,0,0.,4.8,2.,4.8,0.,4.8,0.,4.8
1981-08-24 06:56:00.970 ,1,0,0.,4.8,0.,4.8,1.,4.8,0.,4.8
1981-08-24 06:56:05.770 ,1,0,0.,4.8,0.,4.8,1.,4.8,0.,4.8
1981-08-24 06:56:10.570 ,1,0,0.,4.8,3.,4.8,0.,4.8,0.,4.8
1981-08-24 06:56:15.370 ,1,0,0.,4.8,1.,4.8,0.,4.8,0.,4.8
1981-08-24 06:56:20.170 ,1,0,0.,4.8,0.,4.8,0.,4.8,0.,4.8
1981-08-24 06:56:24.970 ,1,0,0.,4.8,1.,4.8,0.,4.8,1.,4.8
1981-08-24 06:56:29.770 ,1,0,0.,4.8,0.,4.8,0.,4.8,0.,4.8
1981-08-24 06:56:34.570 ,1,0,0.,4.8,3.,4.8,0.,4.8,1.,4.8
1981-08-24 06:56:39.370 ,1,0,0.,4.8,0.,4.8,0.,4.8,0.,4.8
1981-08-24 06:56:44.170 ,1,0,0.,4.8,0.,4.8,0.,4.8,1.,4.8
1981-08-24 06:56:48.970 ,0,0,0.,4.8,0.,4.8,1.,4.8,0.,4.8
1981-08-24 06:56:53.770 ,0,0,0.,4.8,0.,4.8,1.,4.8,0.,4.8
1981-08-24 06:56:58.570 ,0,0,0.,4.8,2.,4.8,0.,4.8,0.,4.8
1981-08-24 06:57:03.370 ,0,0,0.,4.8,1.,4.8,0.,4.8,0.,4.8